Ketchikan, AK

7:33 AM AKST on November 15, 2018 (GMT -0900)
Ketchikan International

Weather History for PAKT - August, 2018

Change the Weather History Date:

Tuesday, August 14, 2018

  Actual Average Record
Temperature  
Mean Temperature 58 °F -  
Max Temperature 64 °F 67 °F 89 °F (1977)
Min Temperature 55 °F 52 °F 46 °F (1970)
Degree Days  
Heating Degree Days 6    
Growing Degree Days 8 (Base 50)    
Moisture  
Dew Point 54 °F    
Average Humidity 88    
Maximum Humidity 100    
Minimum Humidity 67    
Precipitation  
Precipitation 0.36 in - - ()
Sea Level Pressure  
Sea Level Pressure 30.02 in    
Wind  
Wind Speed 12 mph (ESE)    
Max Wind Speed 16 mph    
Max Gust Speed -    
Visibility 7 miles    
Events Rain    
Averages and records for this station are not official NWS values.
T = Trace of Precipitation, MM = Missing Value Source: NWS Daily Summary

Daily Weather History Graph

Daily Weather History Graph

Search for Another Location

Airport or City:

Astronomy

Aug. 14, 2018 Rise Set
Actual Time 5:18 AM AKDT 8:23 PM AKDT
Civil Twilight 4:35 AM AKDT 9:05 PM AKDT
Nautical Twilight 3:38 AM AKDT 10:02 PM AKDT
Astronomical Twilight 2:17 AM AKDT 11:20 PM AKDT
Moon 9:43 AM AKDT (8/14) 10:05 PM AKDT (8/14)
Length of Visible Light 16h 29m
Length of Day
15h 04m
Waxing Crescent, 16% of the Moon is Illuminated
Aug 14
Waxing Crescent
Aug 17
First Quarter
Aug 26
Full
Sep 2
Last Quarter
Sep 9
New

Hourly Weather History & Observations

Time (AKDT) Temp. Dew Point Humidity Pressure Visibility Wind Dir Wind Speed Gust Speed Precip Events Conditions
12:19 AM 59.0 °F 54.0 °F 83% 30.06 in 10.0 mi SE 16.1 mph - 0.00 in Rain Light Rain
12:53 AM 57.9 °F 54.0 °F 87% 30.07 in 10.0 mi SE 8.1 mph - 0.00 in Rain Light Rain
1:16 AM 57.9 °F 54.0 °F 87% 30.06 in 10.0 mi SE 13.8 mph - 0.00 in Rain Light Rain
1:53 AM 57.0 °F 55.0 °F 93% 30.06 in 4.0 mi SE 11.5 mph - 0.05 in Rain Rain
2:10 AM 57.0 °F 55.0 °F 93% 30.05 in 10.0 mi SE 9.2 mph - 0.01 in Rain Light Rain
2:41 AM 57.0 °F 55.0 °F 93% 30.04 in 7.0 mi SE 12.7 mph - 0.01 in Rain Light Rain
2:53 AM 57.0 °F 55.0 °F 93% 30.04 in 7.0 mi SE 12.7 mph - 0.01 in Rain Light Rain
3:06 AM 57.0 °F 55.0 °F 93% 30.04 in 2.5 mi SE 12.7 mph - 0.01 in Rain Light Rain
3:15 AM 57.0 °F 55.0 °F 93% 30.03 in 5.0 mi SE 13.8 mph - 0.01 in Rain Light Rain
3:53 AM 57.0 °F 55.0 °F 93% 30.02 in 4.0 mi SE 12.7 mph - 0.06 in Rain Light Rain
4:48 AM 57.2 °F 55.4 °F 94% 30.01 in 7.0 mi ESE 16.1 mph - 0.09 in Rain Light Rain
4:53 AM 57.0 °F 55.0 °F 93% 30.01 in 6.0 mi ESE 16.1 mph - 0.09 in Rain Light Rain
5:53 AM 57.0 °F 55.0 °F 93% 30.01 in 5.0 mi SE 13.8 mph - 0.04 in Rain Light Rain
6:19 AM 55.4 °F 55.4 °F 100% 30.01 in 3.0 mi ESE 15.0 mph - N/A Rain Light Rain
6:53 AM 57.2 °F 55.4 °F 94% 30.01 in 3.0 mi SE 12.7 mph - N/A   Overcast
7:53 AM 57.2 °F 55.4 °F 94% 30.00 in 3.0 mi ESE 12.7 mph - N/A   Overcast
8:51 AM 57.2 °F 55.4 °F 94% 30.00 in 3.0 mi SE 13.8 mph - N/A   Overcast
8:53 AM 57.2 °F 55.4 °F 94% 30.00 in 3.0 mi SE 11.5 mph - N/A   Overcast
9:51 AM 57.2 °F 55.4 °F 94% 30.00 in 2.0 mi ESE 11.5 mph - N/A   Overcast
9:53 AM 57.2 °F 55.4 °F 94% 30.01 in 2.0 mi SE 11.5 mph - N/A   Overcast
10:53 AM 57.2 °F 55.4 °F 94% 30.00 in 2.0 mi ESE 10.4 mph - N/A   Overcast
11:53 AM 59.0 °F 57.2 °F 94% 30.01 in 3.0 mi ESE 9.2 mph - N/A   Overcast
12:43 PM 60.8 °F 57.2 °F 88% 30.00 in 10.0 mi ESE 9.2 mph - N/A   Overcast
12:53 PM 60.8 °F 57.2 °F 88% 30.00 in 10.0 mi ESE 9.2 mph - N/A   Overcast
1:53 PM 60.8 °F 57.2 °F 88% 30.01 in 8.0 mi SE 8.1 mph - N/A   Overcast
2:53 PM 62.6 °F 57.2 °F 82% 30.01 in 6.0 mi SE 5.8 mph - N/A Rain Light Rain
3:53 PM 61.0 °F 57.9 °F 90% 30.01 in 6.0 mi East 4.6 mph - 0.11 in Rain Light Rain
4:53 PM 62.1 °F 57.9 °F 86% 30.01 in 10.0 mi Calm Calm - 0.00 in   Overcast
5:53 PM 62.6 °F 55.4 °F 77% 30.00 in 10.0 mi NNW 9.2 mph - N/A   Mostly Cloudy
6:53 PM 60.1 °F 53.1 °F 78% 30.01 in 10.0 mi NW 6.9 mph - N/A   Scattered Clouds
7:53 PM 57.9 °F 50.0 °F 75% 30.02 in 10.0 mi NW 6.9 mph - N/A   Scattered Clouds
8:53 PM 55.9 °F 48.9 °F 77% 30.03 in 10.0 mi NW 6.9 mph - N/A   Scattered Clouds
9:53 PM 57.0 °F 46.9 °F 69% 30.04 in 10.0 mi WNW 8.1 mph - N/A   Clear
10:53 PM 55.9 °F 46.9 °F 72% 30.04 in 10.0 mi NW 8.1 mph - N/A   Clear
11:53 PM 55.9 °F 45.0 °F 67% 30.05 in 10.0 mi WNW 8.1 mph - N/A   Clear